View from above orbital plane
|
View from above satellite
|
Ground track
|
The orbit data is extracted from the following two-line orbital elements,
1 23561U 95021B 21019.15703963 .00000013 00000-0 19370-4 0 9999
2 23561 98.6974 67.3449 0006448 342.6804 82.2744 14.38004772349799
Epoch (UTC): | 19 January 2021 03:46:08 |
Eccentricity: | 0.0006448 |
inclination: | 98.6974° |
perigee height: | 760 km |
apogee height: | 770 km |
right ascension of ascending node: | 67.3449° |
argument of perigee: | 342.6804° |
revolutions per day: | 14.38004772 |
mean anomaly at epoch: | 82.2744° |
orbit number at epoch: | 34979 |
The dashed part of the orbit path shows where the satellite is in the earth's shadow,
|
|